Temp
11 10 10 10 10 10 10 10 10 10 10 11 11 13 15 17 19 18 23 27 27 26 26 28 29 30 32 33 32 31 27 28 28 26 24 28 32 30 32 32 33 33 32 33 32
10 10 10 10 10 10 10 10 10 10 10 11 12 14 15 16 15 22 25 26 26 26 26 29 31 32 32 33 32 29 27 29 30 29 26 29 28 31 32 34 33 32 33 32 32
11 10 10 10 10 10 10 10 10 11 11 11 12 15 17 16 21 29 28 26 26 26 27 30 32 33 33 34 33 30 28 30 30 29 26 28 32 34 33 31 33 31 32 33 32
12 11 12 12 12 11 10 11 11 11 11 12 14 16 17 15 27 26 25 26 26 25 26 31 33 33 33 33 34 30 30 29 29 28 25 28 32 33 33 32 34 33 33 33 32
15 15 15 15 15 14 12 12 11 10 11 12 14 15 16 23 27 26 26 25 25 25 28 31 32 34 33 34 32 30 30 29 28 28 26 25 31 31 29 32 34 33 33 32 33
17 17 17 16 16 16 16 16 15 14 13 13 13 14 18 25 30 28 26 24 27 27 29 32 33 35 35 33 31 30 30 29 26 27 26 29 29 32 30 34 33 33 32 33 33
17 17 17 17 18 18 18 18 18 17 16 16 16 13 22 27 29 29 28 27 28 28 31 32 34 35 35 32 32 31 29 27 26 25 27 29 28 31 33 34 33 33 33 33 34
17 17 17 18 18 18 18 18 18 18 18 17 16 16 24 29 28 29 29 29 29 30 32 33 34 34 34 32 31 30 27 25 25 24 24 25 27 29 33 33 33 33 33 33 33
17 17 18 18 18 19 19 18 17 18 19 17 15 19 28 28 28 30 30 31 31 31 32 33 34 33 34 32 31 31 27 24 23 22 22 24 27 28 30 33 33 33 33 33 32
17 18 18 18 19 19 18 18 16 17 18 17 19 24 28 30 31 30 30 31 32 33 33 33 32 32 33 33 31 29 31 26 24 22 22 23 23 28 26 28 33 33 33 33 32
17 18 18 18 19 20 19 17 21 22 22 27 28 29 31 31 30 31 31 31 32 32 30 31 30 31 33 34 33 32 29 25 25 23 23 21 21 23 25 26 30 33 32 31 32
17 18 18 19 19 19 18 24 29 29 28 30 31 30 31 31 30 31 31 31 31 30 32 32 31 34 35 34 31 32 31 25 24 22 23 21 22 23 23 24 28 31 32 31 30
17 18 19 19 20 19 22 26 28 28 28 30 31 31 31 31 31 31 32 32 31 31 32 32 33 35 35 34 32 32 32 27 25 22 23 22 21 21 22 23 24 27 31 31 28
17 18 19 20 18 24 27 28 28 29 26 29 30 31 31 31 31 33 32 33 32 31 32 33 35 35 35 33 33 33 28 25 23 23 24 24 23 21 22 22 22 24 30 28 25
18 19 19 19 16 25 29 29 28 29 23 31 31 32 32 31 32 32 33 33 32 32 33 33 34 35 34 35 33 30 31 27 25 23 25 24 24 22 21 21 22 24 29 29 29
18 19 19 19 16 25 27 28 29 25 25 30 31 31 30 32 32 32 32 33 34 33 34 34 36 36 35 35 35 33 30 27 23 21 24 27 27 24 22 24 26 27 28 29 30
19 20 19 18 27 28 28 29 25 26 31 30 31 31 31 31 32 31 31 31 31 30 31 33 34 35 35 34 35 33 32 28 25 26 27 29 29 27 26 27 28 27 28 30 29
21 22 21 24 26 27 28 28 25 30 30 31 32 30 27 30 32 31 31 31 32 33 33 32 31 33 35 35 34 33 33 31 28 27 27 27 28 27 29 29 29 30 28 30 30
22 22 23 26 25 26 28 27 28 30 31 31 31 30 30 31 31 31 32 32 33 33 32 32 33 35 35 35 35 34 32 35 31 24 28 23 22 30 30 29 28 28 28 28 26
20 26 30 30 29 28 28 28 30 31 31 31 29 30 28 29 31 31 30 33 32 33 34 33 31 35 35 35 35 35 36 33 31 27 27 25 25 23 29 30 31 30 30 30 29
22 28 31 30 29 30 28 30 30 31 31 30 30 30 29 28 30 31 30 31 33 32 32 32 32 33 34 33 33 33 33 34 35 32 28 27 30 26 26 22 31 30 31 31 31
27 28 31 30 30 31 31 31 24 31 31 31 31 31 30 30 30 30 27 31 32 33 31 32 32 32 33 35 35 34 34 34 33 33 34 33 32 27 26 27 32 30 30 31 31
27 30 31 31 29 30 31 31 31 31 31 30 30 31 31 30 29 29 27 31 31 31 29 31 31 30 31 34 34 34 34 35 35 35 34 33 29 29 29 29 32 32 31 30 31
27 29 32 32 32 31 30 31 30 31 31 30 30 31 30 30 31 29 29 29 31 31 26 29 30 30 28 29 29 30 32 35 35 33 34 35 31 32 33 32 33 33 32 28 26
28 30 32 30 31 31 31 30 30 30 30 30 29 30 29 28 30 30 30 29 30 26 30 30 29 30 31 30 31 30 31 33 34 34 34 35 33 32 33 33 32 33 33 28 28
27 29 31 31 30 30 26 30 29 30 29 29 29 30 29 29 28 28 29 30 29 29 29 31 29 30 29 31 30 30 31 32 34 35 35 35 35 33 27 22 20 30 30 27 27
29 29 29 28 30 30 30 30 29 29 29 29 29 29 29 29 29 30 30 31 30 27 22 24 28 28 27 30 28 29 31 31 33 35 34 33 27 27 25 20 18 24 28 24 24
Height
799 797 795 793 791 789 788 786 784 783 782 780 778 777 775 773 772 772 766 759 759 760 762 761 761 757 754 751 753 756 783 785 781 793 795 764 759 763 756 757 758 762 772 777 782
798 796 794 792 789 787 786 784 783 781 780 779 777 776 774 773 771 765 757 757 759 760 762 758 754 752 753 749 754 766 782 777 763 767 782 763 767 766 764 759 763 770 773 780 783
797 795 792 790 788 786 784 782 781 779 778 777 775 774 773 773 768 742 745 752 756 757 759 754 750 749 751 741 748 762 780 766 763 767 772 772 759 753 760 774 766 777 777 780 786
796 794 791 789 788 785 783 781 779 778 776 775 774 773 772 774 763 747 748 751 754 756 759 752 747 750 751 749 740 767 759 764 767 770 781 774 756 759 759 767 760 770 778 780 788
796 793 791 789 787 785 783 781 779 777 776 774 774 773 773 767 752 748 749 751 752 755 755 748 748 746 751 741 747 762 762 763 770 770 777 775 761 770 774 763 763 773 779 784 787
796 793 791 788 786 784 782 780 778 776 775 774 773 774 775 765 743 745 748 750 751 753 751 745 742 737 737 744 756 757 761 768 778 776 777 770 773 767 777 761 768 775 781 783 786
797 794 791 788 786 783 781 779 777 775 774 773 774 776 768 751 744 745 746 749 750 751 746 742 739 737 735 749 743 750 773 777 784 786 784 775 788 778 764 764 772 778 781 782 786
797 794 791 788 785 782 779 777 775 774 773 772 773 777 760 743 743 743 743 746 748 748 743 740 739 737 738 741 751 760 777 794 793 792 794 793 803 780 766 769 776 778 779 783 786
797 794 791 788 784 781 778 776 775 774 773 773 775 772 750 743 743 739 740 740 742 745 743 739 740 744 741 752 759 756 785 797 803 798 800 802 801 785 773 771 776 776 779 783 788
797 794 791 787 783 780 777 775 773 773 772 775 772 769 745 738 735 737 739 737 739 739 741 740 745 754 748 749 771 770 766 788 798 802 801 808 809 791 786 782 773 774 777 783 790
796 793 790 786 782 778 775 776 775 771 767 754 748 741 733 733 739 737 737 736 737 741 756 748 761 761 746 734 741 750 768 791 794 798 806 818 819 807 794 791 779 774 778 787 790
795 792 789 785 781 777 775 769 756 757 755 742 739 738 736 734 741 734 737 741 742 753 745 749 760 735 727 727 750 749 759 792 797 798 804 816 810 805 803 797 783 775 779 787 790
794 791 787 783 779 775 772 765 760 757 757 738 734 735 736 734 733 735 735 733 744 751 744 746 738 726 725 736 751 749 752 783 795 805 806 812 820 819 805 801 794 785 778 783 793
792 789 785 782 780 771 763 760 760 757 772 750 739 733 732 731 735 726 731 730 734 745 739 737 717 724 731 738 743 747 759 781 803 810 814 802 829 821 818 814 807 796 784 788 790
789 785 782 781 777 769 761 760 760 756 803 737 734 728 725 733 725 730 728 728 738 735 734 739 731 726 736 728 733 766 746 775 792 807 803 808 813 817 817 822 811 804 787 787 790
785 780 778 779 776 767 764 761 759 785 792 746 730 735 740 727 726 726 732 726 721 730 727 726 708 714 721 717 721 737 756 778 793 811 814 789 792 804 803 787 793 789 785 784 782
779 776 775 774 766 763 763 759 786 785 738 747 739 732 735 732 731 733 742 744 745 755 749 734 727 715 717 731 719 741 748 792 815 802 797 769 778 778 771 764 769 781 784 779 783
777 775 773 769 767 766 763 766 791 746 744 733 731 737 762 738 731 735 740 745 730 728 733 751 757 729 716 724 735 741 743 772 804 805 799 774 787 774 744 746 754 760 772 773 777
776 774 770 762 764 766 764 776 768 748 740 737 736 746 748 739 739 734 734 733 724 724 742 745 742 710 711 714 717 734 750 729 763 802 794 804 802 754 746 754 760 765 766 769 779
777 772 758 758 761 761 763 765 754 744 742 739 759 747 762 755 741 737 742 722 734 720 718 730 748 710 714 715 716 723 714 750 759 806 811 804 796 800 766 758 751 757 757 763 773
778 767 753 754 757 757 765 756 751 744 744 748 747 748 753 758 746 744 750 737 725 730 729 733 738 727 717 733 737 736 740 733 728 750 793 806 775 767 772 778 745 749 750 755 760
771 771 751 753 758 741 749 748 757 745 741 742 741 740 744 746 748 752 766 744 730 728 741 732 733 746 734 712 710 721 729 731 749 755 740 747 756 748 745 751 738 745 746 746 752
769 754 749 751 764 750 745 749 747 746 748 749 747 743 741 748 757 754 765 743 738 738 753 741 745 761 747 727 716 729 725 721 722 724 741 754 768 742 742 736 730 733 740 744 747
772 760 745 745 740 742 749 750 752 747 750 750 753 746 747 751 742 757 754 752 741 740 751 746 748 754 779 768 757 751 736 722 724 744 739 730 745 735 725 729 728 723 730 743 749
767 756 742 753 744 743 747 750 757 756 749 748 755 753 754 762 752 753 748 753 745 750 748 748 764 752 747 751 746 750 747 732 732 725 739 721 733 731 725 728 732 730 727 742 750
767 760 747 746 748 752 762 757 758 754 760 757 762 753 755 761 762 767 756 751 758 751 753 743 764 754 759 746 748 753 743 733 721 720 720 716 722 713 735 741 773 747 747 751 756
763 760 759 755 749 751 749 753 757 761 760 759 762 761 757 757 752 750 744 743 744 762 777 777 759 766 772 751 759 764 747 744 725 713 721 735 749 743 753 762 783 767 760 769 769
Wind_Speed
12 11 11 11 10 10 10 11 11 11 11 13 13 13 12 12 12 10 13 8 14 15 7 10 15 17 12 9 3 4 3 2 7 12 4 17 14 6 8 9 14 18 21 24 27
12 12 11 10 10 10 10 10 11 11 12 12 13 13 11 11 15 22 19 18 11 13 13 16 14 13 12 13 5 6 3 6 2 10 11 13 18 16 13 13 15 18 21 24 24
12 12 11 10 9 9 10 10 11 11 11 12 12 9 8 8 10 6 13 24 16 16 18 18 14 14 14 14 11 2 5 1 6 10 7 11 9 9 15 3 23 23 21 20 23
13 12 11 10 9 9 10 10 11 10 11 11 9 7 5 5 2 6 10 20 16 13 18 21 16 14 15 15 6 5 4 5 6 7 5 13 10 9 13 5 20 22 19 19 18
14 13 12 11 11 11 11 11 11 11 11 9 7 5 4 8 10 5 5 13 15 16 21 18 16 14 15 4 7 6 6 12 8 7 2 4 8 14 3 4 20 21 18 19 17
16 15 13 12 12 12 12 12 12 11 9 7 6 3 6 11 2 3 4 13 17 20 21 20 13 13 15 2 4 7 9 15 8 6 3 8 8 5 16 15 20 21 19 18 18
15 15 14 15 15 14 14 12 11 9 6 4 3 4 10 15 3 6 7 12 17 21 18 20 19 14 12 5 15 14 15 12 9 2 4 7 4 7 12 17 20 19 18 17 15
15 16 15 16 16 15 15 13 9 8 3 2 4 5 8 2 4 7 11 14 16 19 21 15 17 11 16 7 5 9 6 6 6 7 3 7 10 1 12 17 20 20 18 16 16
14 15 16 17 19 17 16 10 7 4 2 3 4 9 8 1 11 13 12 15 17 17 17 15 14 13 15 13 12 8 6 9 6 4 3 3 7 10 8 17 19 19 18 16 13
14 15 17 18 21 18 14 7 7 4 3 8 15 10 13 11 10 9 12 13 13 13 14 8 8 13 15 13 10 9 10 7 9 5 3 4 9 12 10 12 19 17 18 17 15
14 16 18 20 22 20 13 5 5 6 11 10 14 14 4 7 5 11 12 12 13 11 13 14 11 16 19 19 7 6 4 9 9 12 5 3 4 13 6 9 10 16 15 17 19
16 17 19 20 22 19 7 6 11 13 14 17 6 8 9 4 9 10 13 11 12 13 17 11 16 19 20 6 10 16 13 14 11 15 3 4 14 14 7 7 7 9 17 17 11
18 18 20 21 23 13 11 16 12 12 11 4 7 12 5 10 10 12 15 16 13 14 15 18 15 19 20 7 6 24 9 13 8 10 3 9 3 8 9 9 15 13 18 17 22
19 20 21 22 12 11 17 2 6 10 5 3 8 5 6 10 10 14 18 12 9 14 17 16 15 18 18 12 11 8 17 12 11 8 3 13 3 1 14 10 11 16 9 9 3
22 23 23 19 16 11 8 5 9 10 4 3 6 4 7 9 13 13 14 13 13 13 12 12 12 10 16 17 17 12 12 18 15 8 9 12 4 6 10 11 17 22 12 19 25
26 23 18 6 9 14 11 9 9 0 4 4 5 8 9 13 7 13 10 13 12 12 12 17 12 7 9 8 12 18 21 16 13 5 4 12 5 8 16 31 24 15 14 10 10
22 14 9 10 6 7 8 8 3 5 2 5 5 4 8 10 10 9 12 12 11 9 11 13 10 5 9 15 8 7 13 4 3 7 4 15 9 6 23 18 22 19 19 17 15
12 6 7 17 8 11 9 7 5 8 9 1 6 10 7 13 8 9 11 11 16 14 9 10 12 15 15 17 10 11 12 5 3 3 1 4 2 5 23 20 25 22 19 17 21
8 8 7 12 8 7 7 8 7 11 7 9 2 2 9 9 6 9 13 13 13 8 11 7 15 14 13 14 13 13 10 16 5 7 6 1 5 2 20 15 19 20 22 19 9
6 13 13 4 5 8 8 6 6 7 10 6 5 5 8 13 8 3 8 4 1 8 8 6 13 16 13 11 15 16 7 10 5 3 5 6 7 5 9 15 21 21 25 21 20
4 6 4 7 7 7 10 8 3 5 7 8 12 3 6 4 6 1 10 3 4 1 5 12 11 2 10 10 13 11 12 10 13 8 4 8 4 11 3 10 16 21 24 24 21
10 10 7 5 8 8 4 4 2 3 4 4 7 9 7 6 10 6 7 9 11 9 3 10 10 8 12 13 16 16 16 17 10 11 10 10 3 12 16 9 12 21 22 23 20
6 10 6 9 8 10 7 5 8 9 6 8 8 4 10 11 4 10 11 1 3 5 9 11 5 8 13 8 8 13 17 14 15 15 15 9 5 17 14 16 14 13 21 18 22
5 4 5 7 10 11 4 3 5 7 6 5 5 7 6 7 8 2 1 7 1 4 7 3 12 12 5 8 11 15 18 17 16 12 15 13 15 16 16 14 13 13 22 19 12
5 7 8 2 3 3 5 6 2 3 3 1 2 6 8 7 7 3 5 2 6 6 5 5 11 13 4 11 10 15 20 20 18 16 17 13 5 9 9 10 9 8 12 21 20
6 8 10 7 2 7 6 2 4 5 3 5 5 7 7 4 5 8 6 6 3 5 11 10 10 13 14 9 12 15 18 21 18 20 17 16 8 16 11 18 27 6 7 14 15
10 10 7 7 5 9 1 7 6 6 3 4 7 10 7 13 10 13 8 9 1 5 6 9 13 5 13 7 14 9 10 14 15 9 5 12 10 9 10 15 2 7 3 9 8
Wind_Direction
338 335 327 325 320 317 315 310 308 307 307 309 310 312 308 304 296 272 248 221 238 244 232 208 212 231 234 217 220 284 267 222 167 166 242 299 103 20 101 196 137 124 144 132 143
342 338 331 330 327 323 314 304 302 303 300 302 305 308 312 314 300 264 242 245 240 231 207 213 210 213 228 226 170 222 284 336 176 136 182 264 104 168 169 156 108 125 123 143 141
342 338 336 332 329 322 318 314 309 297 295 297 299 306 305 331 277 273 223 218 229 224 213 223 216 217 233 218 193 221 246 147 81 128 123 247 175 156 127 125 131 132 136 152 132
346 343 337 332 330 330 327 320 308 303 300 297 299 297 295 297 281 95 160 193 212 211 218 238 229 222 243 235 187 182 166 152 152 134 152 262 201 96 123 178 131 135 157 137 147
359 355 345 340 338 333 327 324 316 311 306 304 306 302 310 226 251 111 207 203 207 198 212 227 223 221 235 300 141 218 99 107 116 135 128 225 98 121 0 218 131 140 159 151 154
6 3 357 346 338 334 333 328 320 310 304 298 296 295 265 248 341 131 126 181 193 197 211 227 223 228 248 238 354 135 133 122 127 104 88 111 73 110 187 142 143 148 153 166 154
4 2 360 351 347 340 335 328 324 318 306 284 261 295 264 253 42 263 176 192 199 201 212 221 227 238 236 210 158 139 137 131 154 48 94 119 39 158 149 155 149 157 164 166 159
359 359 355 348 344 334 327 323 314 312 292 243 206 248 261 22 264 252 188 189 205 210 232 216 235 262 270 110 242 136 114 173 121 160 19 338 157 181 160 162 156 165 168 153 158
352 353 350 342 337 332 326 324 321 305 273 198 257 218 254 169 212 213 185 201 192 206 224 230 223 245 246 239 226 180 179 128 144 199 118 267 144 214 253 172 170 171 160 160 147
341 343 344 337 334 329 326 318 285 263 268 244 264 263 254 241 185 174 199 203 189 204 213 212 210 235 239 230 232 201 225 127 138 134 151 181 270 197 255 267 182 169 165 155 152
336 335 337 333 333 326 321 287 209 203 231 259 140 253 134 93 127 206 173 189 198 190 205 201 216 220 219 221 193 153 86 126 136 145 134 155 329 256 247 285 253 165 163 142 168
332 329 330 328 330 322 296 260 23 333 310 212 279 297 299 153 198 180 189 186 198 204 212 178 224 235 226 276 57 280 151 151 132 141 113 157 315 208 285 261 265 168 153 154 143
327 325 323 323 323 299 235 282 322 330 298 160 191 218 183 224 212 171 198 212 190 221 213 231 210 230 243 209 252 261 152 159 130 142 83 125 42 198 260 300 304 287 161 173 145
323 319 314 320 312 291 248 262 301 325 347 182 179 91 191 215 222 169 210 216 197 219 234 237 251 203 237 200 212 256 96 105 129 170 205 213 137 225 205 244 290 282 180 189 264
322 312 305 307 302 287 356 311 339 273 322 24 89 114 190 227 117 165 197 237 264 220 222 223 245 246 223 236 166 104 115 145 167 183 151 205 143 163 175 239 229 227 220 179 193
320 308 301 283 243 256 302 309 284 140 251 146 157 175 195 208 201 135 190 250 267 271 234 257 211 232 246 243 244 120 126 106 102 217 230 193 178 203 176 207 214 217 234 208 195
324 306 266 242 272 350 313 288 224 259 80 134 240 164 200 268 151 169 196 209 225 207 218 233 250 265 226 238 187 219 193 174 201 206 235 179 197 232 213 209 198 199 213 202 218
326 289 284 245 272 301 290 260 300 338 83 80 292 142 88 284 135 169 190 211 239 235 218 205 208 210 222 237 179 214 245 201 289 327 58 335 264 232 201 198 193 195 196 215 196
300 261 237 263 233 259 274 247 298 15 340 358 219 90 297 112 281 184 200 217 205 249 282 309 230 181 196 237 251 206 215 244 168 127 274 346 13 333 175 187 185 204 189 208 194
301 268 250 235 215 247 267 329 35 354 313 288 342 65 14 300 213 175 309 49 329 306 356 306 303 190 194 193 259 273 267 220 154 156 300 218 177 304 177 198 182 197 191 201 170
252 263 136 209 227 249 265 60 79 37 318 327 327 267 129 5 286 343 307 324 159 205 311 297 296 175 155 204 235 221 253 263 267 182 141 281 156 167 232 306 187 189 190 190 205
285 275 153 189 255 237 76 61 336 64 183 331 294 328 75 287 34 30 342 7 353 330 265 223 286 282 255 207 216 250 225 242 258 252 241 233 267 172 155 272 251 189 203 187 202
269 258 179 223 274 296 101 167 313 7 46 351 344 1 348 316 323 130 201 239 287 284 31 342 262 266 258 238 238 216 247 251 251 271 279 298 134 181 190 200 189 202 184 189 195
277 281 174 220 265 293 131 206 179 147 291 334 330 285 268 249 263 34 358 273 225 32 356 318 284 300 7 273 273 302 317 249 255 244 260 258 145 182 186 175 194 172 172 190 189
247 288 317 302 216 341 333 25 310 297 87 232 197 290 355 337 329 301 17 22 303 146 264 263 270 287 278 298 285 284 294 304 249 256 248 267 131 171 173 169 186 173 143 155 181
281 332 336 286 124 298 142 154 317 39 33 330 278 48 316 349 343 311 314 331 134 315 327 270 253 276 286 261 246 271 251 287 244 245 258 273 285 160 110 63 355 145 105 113 169
312 318 278 291 252 242 49 83 21 36 130 302 319 301 346 25 1 330 303 295 356 166 31 318 288 354 299 358 339 263 297 285 293 253 286 284 96 91 64 83 37 325 173 104 114